E24MSQ-13 Weather Reports


Display with metric or nautical units.
time (UTC)temp
F
wind
direction
speed
MPH
gust
MPH
rain 1hr
in
rain 24hr
in
rain mn
in
humidity
%
barometer
mb
20260505013406 84 0 0.0 0.0 0.00 0.00 0.00 76 1012.0
20260505011842 83 0 0.0 0.0 0.00 0.00 0.00 80 1012.0
20260505010317 83 0 0.0 0.0 0.00 0.00 0.00 79 1011.0
20260505004752 82 0 0.0 0.0 0.00 0.00 0.00 79 1011.0
20260505003227 82 0 0.0 0.0 0.00 0.00 0.00 81 1011.0
20260505001703 82 0 0.0 0.0 0.00 0.00 0.00 82 1011.0
20260505000138 81 0 0.0 0.0 0.00 0.00 0.00 81 1011.0
20260504234613 81 0 0.0 0.0 0.00 0.00 0.00 83 1011.0
20260504233049 81 0 0.0 0.0 0.00 0.00 0.00 82 1011.0
20260504231523 80 0 0.0 0.0 0.00 0.00 0.00 85 1010.0
20260504225959 80 0 0.0 0.0 0.00 0.00 0.00 85 1010.0
20260504224435 80 0 0.0 0.0 0.00 0.00 0.00 82 1010.0
20260504222909 80 0 0.0 0.0 0.00 0.00 0.00 82 1010.0
20260504221344 80 0 0.0 0.0 0.00 0.00 0.00 83 1010.0
20260504215819 79 0 0.0 0.0 0.00 0.00 0.00 83 1010.0
20260504214254 79 0 0.0 0.0 0.00 0.00 0.00 84 1010.0
20260504212730 79 0 0.0 0.0 0.00 0.00 0.00 84 1010.0
20260504211205 80 0 0.0 0.0 0.00 0.00 0.00 82 1010.0
20260504205641 79 0 0.0 0.0 0.00 0.00 0.00 84 1010.0
20260504204116 80 0 0.0 0.0 0.00 0.00 0.00 82 1010.0
20260504202551 80 0 0.0 0.0 0.00 0.00 0.00 82 1010.0
20260504201027 80 0 0.0 0.0 0.00 0.00 0.00 83 1010.0
20260504195502 80 0 0.0 0.0 0.00 0.00 0.00 82 1010.0
20260504193938 81 0 0.0 0.0 0.00 0.00 0.00 81 1010.0
20260504192414 81 0 0.0 0.0 0.00 0.00 0.00 82 1010.0
20260504190849 81 0 0.0 0.0 0.00 0.00 0.00 82 1010.0
20260504185325 81 0 0.0 0.0 0.00 0.00 0.00 83 1010.0
20260504183800 80 0 0.0 0.0 0.00 0.00 0.00 83 1010.0
20260504182236 80 0 0.0 0.0 0.00 0.00 0.00 81 1011.0
20260504180711 81 0 0.0 0.0 0.00 0.00 0.00 83 1011.0
20260504175147 80 0 0.0 0.0 0.00 0.00 0.00 83 1011.0
20260504173623 81 0 0.0 0.0 0.00 0.00 0.00 82 1012.0
20260504172058 80 0 0.0 0.0 0.00 0.00 0.00 83 1013.0
20260504170534 82 0 0.0 0.0 0.00 0.00 0.00 80 1013.0
20260504160356 87 0 0.0 0.0 0.00 0.00 0.00 69 1012.0
20260504150219 88 0 0.0 0.0 0.00 0.00 0.00 68 1011.0
20260504080620 95 0 0.0 0.0 0.00 0.00 0.00 53 1008.0
20260504050127 97 0 0.0 0.0 0.00 0.00 0.00 53 1010.0
20260504044602 97 0 0.0 0.0 0.00 0.00 0.00 53 1010.0
20260504043038 98 0 0.0 0.0 0.00 0.00 0.00 52 1010.0
20260504041514 97 0 0.0 0.0 0.00 0.00 0.00 54 1010.0
20260504035949 96 0 0.0 0.0 0.00 0.00 0.00 55 1011.0
20260504034425 97 0 0.0 0.0 0.00 0.00 0.00 47 1011.0
20260504032900 97 0 0.0 0.0 0.00 0.00 0.00 50 1011.0
20260504031336 96 0 0.0 0.0 0.00 0.00 0.00 51 1011.0
20260504025812 95 0 0.0 0.0 0.00 0.00 0.00 56 1011.0
20260504024247 95 0 0.0 0.0 0.00 0.00 0.00 58 1011.0
20260504022723 94 0 0.0 0.0 0.00 0.00 0.00 62 1011.0
20260504021158 94 0 0.0 0.0 0.00 0.00 0.00 63 1011.0
20260504015634 92 0 0.0 0.0 0.00 0.00 0.00 67 1011.0